Greenland, New Hampshire, United States (03840)
Lat: 43.04N, Lon: 70.83W
Wx Zone: NHZ014
Local Info
Past Weather Observations for Wednesday, May 20, 2015

NOTE: This archive is for the closest National Weather Service station to Greenland. Information may differ from the station used for current weather conditions.

Click here for Long-term Archive

Time Weather Temperature Dewpoint Humidity Pressure Winds Precip Visibility
23:58
Partly Cloudy
50°F / 10°C 30°F / -1°C 47% 29.89 in
(1012 mb)
SSW 5.8 mph
(SSW 9 kph)
- 10SM
22:58
Partly Cloudy
50°F / 10°C 32°F / 0°C 50% 29.89 in
(1012 mb)
W 8.1 mph
(W 13 kph)
- 10SM
21:58
Partly Cloudy
50°F / 10°C 30°F / -1°C 47% 29.86 in
(1011 mb)
SSW 5.8 mph
(SSW 9 kph)
- 10SM
20:58
Partly Cloudy
52°F / 11°C 32°F / 0°C 47% 29.86 in
(1011 mb)
W 9.2 mph
(W 15 kph)
- 10SM
19:58
Partly Cloudy
50°F / 10°C 32°F / 0°C 50% 29.86 in
(1011 mb)
W 5.8 mph
(W 9 kph)
- 10SM
18:58
Partly Cloudy
54°F / 12°C 30°F / -1°C 41% 29.83 in
(1010 mb)
NW 9.2 mph
(NW 15 kph)
- 10SM
17:58
Partly Cloudy
55°F / 13°C 30°F / -1°C 38% 29.8 in
(1009 mb)
NW 15 mph
(NW 24 kph)
- 10SM
16:58
Partly Cloudy
57°F / 14°C 32°F / 0°C 39% 29.8 in
(1009 mb)
NW 18.4 mph
(NW 30 kph)
- 10SM
15:58
Mostly Cloudy
59°F / 15°C 32°F / 0°C 36% 29.77 in
(1008 mb)
WNW 20.7 mph
(WNW 33 kph)
- 10SM
14:58
Mostly Cloudy
59°F / 15°C 34°F / 1°C 39% 29.74 in
(1007 mb)
NW 18.4 mph
(NW 30 kph)
- 10SM
13:58
Mostly Cloudy
63°F / 17°C 37°F / 3°C 39% 29.71 in
(1006 mb)
NW 21.9 mph
(NW 35 kph)
- 10SM
12:58
Mostly Cloudy
59°F / 15°C 37°F / 3°C 45% 29.74 in
(1007 mb)
WNW 19.6 mph
(WNW 32 kph)
- 10SM
11:58
Mostly Cloudy
59°F / 15°C 39°F / 4°C 48% 29.74 in
(1007 mb)
WNW 15 mph
(WNW 24 kph)
- 10SM
10:58
Mostly Cloudy
63°F / 17°C 39°F / 4°C 42% 29.71 in
(1006 mb)
WNW 18.4 mph
(WNW 30 kph)
- 10SM
09:58
Mostly Cloudy
63°F / 17°C 41°F / 5°C 45% 29.71 in
(1006 mb)
W 15 mph
(W 24 kph)
- 10SM
08:58
Mostly Cloudy
61°F / 16°C 41°F / 5°C 48% 29.71 in
(1006 mb)
W 11.5 mph
(W 19 kph)
- 10SM
07:59
Mostly Cloudy
63°F / 17°C 41°F / 5°C 45% 29.71 in
(1006 mb)
WNW 16.1 mph
(WNW 26 kph)
- 10SM
06:58
Mostly Cloudy
59°F / 15°C 41°F / 5°C 51% 29.71 in
(1006 mb)
NW 11.5 mph
(NW 19 kph)
- 10SM
05:58
Partly Cloudy
57°F / 14°C 43°F / 6°C 59% 29.68 in
(1005 mb)
W 6.9 mph
(W 11 kph)
- 10SM
04:58
Partly Cloudy
55°F / 13°C 45°F / 7°C 67% 29.68 in
(1005 mb)
SSW 6.9 mph
(SSW 11 kph)
- 10SM
03:58
Partly Cloudy
57°F / 14°C 45°F / 7°C 63% 29.68 in
(1005 mb)
W 9.2 mph
(W 15 kph)
- 10SM
02:58
Partly Cloudy
59°F / 15°C 45°F / 7°C 59% 29.68 in
(1005 mb)
W 12.7 mph
(W 20 kph)
- 10SM
01:58
Partly Cloudy
63°F / 17°C 46°F / 8°C 56% 29.65 in
(1004 mb)
WNW 13.8 mph
(WNW 22 kph)
- 10SM
00:58
Mostly Cloudy
64°F / 18°C 55°F / 13°C 73% 29.65 in
(1004 mb)
WNW 11.5 mph
(WNW 19 kph)
- 10SM
Time Weather Temperature Dewpoint Humidity Pressure Winds Precip Visibility


Weather for websites

WeatherForYou.com, LLC is not responsible for any damages or problems caused by this service. Current weather conditions are obtained from the closest station including government and personal stations which may have varying degrees of accuracy. Weather forecasts are derived from the NOAA NDFD. Like all things, this site belongs to Jesus Christ... He just trusts us to maintain it. If you have any questions or comments email webmaster@weatherforyou.com

Copyright © 2015, WeatherForYou.com LLC. All rights reserved.